Wind_Speed
22 23 23 23 23 23 23 23 23 23 23 23 23 23 22 23 23 23 23 23 24 24 24 24 24 24 24 24 25 26 26 26 27 27 27 28 28 27 27 27 26 27 27
24 24 24 23 24 24 24 24 24 25 25 25 25 25 24 24 24 24 24 24 25 25 25 25 25 25 26 26 27 27 27 28 28 28 29 29 29 29 29 28 28 28 29
25 25 25 25 25 25 25 26 26 26 25 26 26 26 26 25 25 25 25 25 26 26 26 26 26 26 26 27 28 28 28 28 29 30 30 30 31 30 30 30 29 29 29
27 27 27 27 27 26 26 27 27 27 27 26 26 27 27 26 26 26 27 26 26 27 27 27 27 28 27 28 28 29 28 28 29 29 30 30 31 31 31 31 30 31 31
27 28 28 27 27 27 27 27 27 27 26 26 27 27 27 28 28 28 28 28 28 28 28 28 29 29 29 29 29 29 29 29 30 30 30 31 32 32 32 32 31 32 31
27 28 27 27 27 27 27 27 27 27 28 28 28 28 28 29 29 29 29 29 30 30 30 30 29 29 29 29 30 30 29 30 30 31 31 31 32 33 33 33 33 33 33
28 28 28 28 28 28 27 27 27 28 28 29 30 30 30 30 31 31 31 31 31 31 31 31 30 30 30 30 30 31 30 31 32 32 32 33 33 34 34 34 35 35 35
28 28 28 28 28 27 27 27 28 28 28 29 30 31 31 31 31 32 32 32 32 32 31 31 31 31 31 31 31 31 31 32 32 33 33 33 34 35 35 35 36 36 36
27 27 26 26 26 26 26 27 28 29 30 30 31 32 32 31 32 32 32 32 33 32 32 32 32 32 32 32 32 33 33 33 33 34 34 34 35 35 36 36 36 36 36
26 26 26 26 26 26 27 27 29 30 30 30 30 30 31 31 31 31 31 32 32 33 33 33 33 33 33 33 34 33 34 35 35 35 36 35 35 35 36 36 36 36 37
25 26 26 27 27 27 28 29 29 29 29 29 29 30 30 31 31 31 30 31 32 33 34 33 33 33 34 34 35 34 34 35 36 36 37 36 36 36 36 36 37 37 37
26 26 26 27 27 27 28 28 28 28 28 29 29 30 31 31 32 32 32 31 32 33 34 34 34 34 34 34 35 35 35 35 35 37 37 37 37 37 37 37 37 37 37
25 25 25 26 27 27 28 27 27 27 28 29 29 31 31 31 32 33 33 32 32 32 33 34 34 33 33 34 34 35 35 36 36 37 37 39 39 39 39 38 38 38 38
24 24 26 26 26 26 26 25 26 27 28 28 29 30 31 31 32 32 32 31 31 31 31 32 33 33 33 33 34 35 36 36 36 37 38 38 38 39 39 39 39 39 39
23 24 24 25 25 25 24 25 25 26 26 27 28 29 30 30 30 30 30 30 31 30 30 31 32 33 34 35 34 35 36 36 37 37 38 38 38 39 39 40 40 41 41
22 23 23 24 23 24 24 25 25 25 25 25 26 27 27 28 29 29 30 30 30 31 30 30 31 32 33 34 35 36 36 37 38 38 39 39 40 40 40 40 40 41 41
22 22 23 23 23 23 24 24 24 24 25 25 26 27 27 27 28 28 29 30 30 31 31 30 30 31 33 33 34 34 35 37 36 36 37 38 38 39 40 40 40 41 41
22 22 22 22 22 23 23 24 23 24 25 26 26 27 27 27 27 28 29 29 30 31 31 31 31 31 32 32 33 33 34 34 35 35 35 36 38 39 40 41 41 41 42
21 21 21 22 21 22 22 22 23 24 25 25 25 26 27 28 27 28 28 29 30 30 31 31 30 31 31 32 32 33 33 33 35 35 35 36 37 38 40 41 41 42 42
21 20 21 21 21 21 21 22 23 24 24 24 26 27 27 28 28 28 29 29 30 30 30 31 31 31 31 31 32 32 33 33 34 35 36 36 37 38 40 41 42 42 43
20 20 21 21 21 21 21 23 24 24 24 25 26 27 28 28 29 29 29 30 30 30 31 31 31 31 32 32 33 33 33 33 33 35 36 36 37 37 38 39 41 42 42
20 20 20 21 21 21 22 23 23 24 25 25 26 27 28 28 28 28 29 30 30 29 29 30 31 32 33 34 34 33 32 33 33 34 35 35 36 36 37 38 39 40 41
19 20 21 21 21 21 22 23 24 25 25 25 26 27 28 28 28 28 28 29 29 29 29 30 31 32 32 32 33 32 32 33 33 33 33 33 34 34 35 36 37 38 39
19 19 20 21 22 22 23 24 25 25 25 26 26 26 27 27 27 27 27 27 27 27 28 28 29 29 30 30 30 30 31 32 31 31 32 32 33 33 33 34 36 37 38
18 19 20 21 22 23 23 24 25 25 25 25 25 25 26 27 26 26 26 25 26 26 26 26 26 26 26 26 27 27 27 28 29 29 30 30 31 32 33 33 34 35 36
18 20 21 22 23 24 24 24 24 24 25 25 25 25 25 25 25 25 24 24 24 23 23 24 24 23 23 23 23 24 24 24 26 27 28 29 31 32 32 32 33 33 35
Wind_Direction
289 291 291 290 292 291 290 290 286 286 287 286 285 284 283 283 281 280 279 279 278 275 273 271 269 267 266 265 262 259 257 254 249 247 246 245 244 245 245 244 246 245 244
287 288 289 289 290 290 289 288 285 285 286 285 283 282 282 281 280 279 279 279 279 277 274 273 270 268 266 265 263 261 258 256 252 248 247 246 246 245 244 243 244 244 244
286 287 288 287 288 288 287 286 284 284 283 283 283 282 281 281 280 279 279 279 278 276 274 273 272 270 268 266 264 262 259 256 253 250 248 247 247 246 245 243 242 243 242
285 285 286 287 288 288 287 286 285 283 283 283 282 282 281 280 280 279 279 278 278 277 274 272 271 270 269 267 264 262 260 257 254 252 249 247 246 246 245 244 242 242 242
288 286 287 289 288 288 286 286 287 285 284 284 283 283 282 281 280 279 278 277 277 276 274 272 271 269 268 266 263 261 259 257 254 251 249 248 247 246 245 244 242 242 242
287 286 287 288 288 288 287 287 287 286 284 283 283 284 284 283 282 280 278 277 276 274 273 272 270 268 267 266 262 260 259 256 252 250 250 250 249 247 246 244 243 242 242
287 289 290 289 289 289 289 289 289 288 285 284 283 283 285 284 282 282 280 278 276 273 272 272 269 268 266 265 263 259 258 256 252 251 250 250 250 248 246 244 244 243 243
288 290 291 292 289 289 289 290 289 289 287 286 285 285 285 285 282 282 281 279 276 274 272 271 270 267 266 265 264 261 258 255 253 251 250 251 250 247 247 246 246 244 244
289 290 292 293 292 290 290 291 291 290 289 288 287 286 286 287 285 282 281 279 277 274 272 270 269 269 267 264 263 261 258 256 254 252 252 252 250 249 247 247 245 245 245
291 291 292 292 292 292 292 292 291 291 290 289 288 287 287 287 287 285 282 279 277 275 273 271 269 269 268 265 263 261 259 257 255 253 252 252 251 251 249 246 245 245 246
291 292 293 292 292 293 294 293 291 291 290 289 288 288 287 286 286 285 283 281 278 275 275 274 273 271 269 268 265 263 261 258 256 254 254 253 252 251 250 249 247 246 246
292 292 293 295 295 295 295 293 292 292 292 291 289 289 288 286 285 283 283 281 279 276 274 274 274 273 270 267 265 263 262 260 257 256 254 253 251 250 250 249 248 246 246
295 295 297 298 297 298 298 296 294 292 293 293 291 290 288 287 285 284 283 282 280 277 273 273 274 274 272 268 265 263 262 260 258 256 254 253 251 250 249 248 248 247 247
297 298 299 298 300 300 299 298 296 294 294 294 294 292 289 286 285 285 284 282 281 279 277 274 274 273 272 269 267 264 262 261 259 257 256 253 251 251 250 249 249 248 247
299 299 300 301 302 303 301 300 298 296 296 296 297 296 292 288 288 286 284 283 283 282 281 279 277 274 272 268 267 265 263 261 260 259 256 254 253 252 250 249 249 248 246
300 301 303 303 302 302 301 301 299 298 299 299 300 299 295 292 291 289 287 286 285 284 283 282 281 278 274 270 267 266 264 261 260 259 256 255 253 252 250 249 248 248 247
302 304 306 305 305 303 303 302 300 301 301 301 300 300 297 294 292 290 289 287 286 285 284 283 282 279 277 273 270 269 266 263 260 257 256 255 254 252 250 249 248 248 247
306 306 309 310 309 307 304 303 302 303 303 302 301 300 299 297 295 293 292 290 289 287 286 285 282 281 277 274 272 269 267 265 261 258 256 255 254 252 250 249 248 248 247
311 311 313 313 312 310 308 306 307 307 305 303 303 302 300 299 297 296 295 293 291 289 288 286 283 281 278 276 273 270 268 266 262 258 255 255 254 253 251 250 249 249 247
314 314 316 315 315 315 313 311 311 309 308 307 307 305 302 300 299 298 296 295 293 290 289 286 285 282 279 277 275 271 268 266 262 259 257 255 255 254 252 251 250 248 247
317 318 318 317 318 318 317 315 315 312 311 310 309 307 304 301 300 299 298 296 294 292 289 286 284 283 280 278 275 272 268 265 263 262 259 257 256 254 253 251 250 249 248
321 320 321 321 321 320 320 320 318 315 313 312 310 309 308 305 304 302 301 301 298 295 291 288 285 282 280 277 274 270 268 265 265 264 261 258 256 254 252 251 249 248 247
326 325 324 324 324 323 322 322 319 317 315 315 314 312 310 310 309 306 305 304 302 299 294 291 288 285 282 280 276 272 269 267 266 265 263 260 256 254 253 251 249 247 246
327 327 328 327 327 326 325 324 322 321 318 317 316 315 314 313 314 312 310 308 306 303 299 296 293 289 285 282 278 275 271 269 266 264 262 260 257 254 252 251 248 246 245
332 331 330 329 329 329 328 326 326 325 324 323 321 321 321 320 318 316 315 313 310 307 303 301 298 295 290 284 280 277 275 272 267 264 263 260 256 254 251 250 250 248 246
334 333 334 333 331 331 330 330 330 328 327 326 326 327 327 326 323 321 320 318 314 310 306 304 302 299 295 291 286 281 278 274 269 266 263 261 257 256 252 250 249 249 248
Height
5845 5843 5842 5841 5839 5838 5837 5835 5834 5833 5832 5830 5829 5828 5827 5826 5825 5824 5823 5823 5822 5821 5820 5820 5820 5820 5820 5820 5821 5821 5822 5822 5823 5825 5827 5828 5830 5832 5833 5835 5836 5838 5840
5840 5838 5837 5836 5834 5833 5831 5830 5829 5827 5826 5825 5824 5823 5822 5820 5819 5818 5817 5817 5816 5815 5814 5814 5813 5813 5813 5814 5814 5814 5815 5816 5817 5818 5820 5821 5823 5825 5827 5829 5831 5832 5834
5834 5833 5832 5830 5829 5827 5825 5824 5823 5822 5820 5819 5818 5817 5815 5814 5813 5812 5811 5810 5809 5809 5808 5807 5807 5807 5806 5806 5807 5807 5808 5809 5810 5811 5813 5814 5816 5818 5820 5822 5824 5826 5828
5828 5827 5826 5824 5823 5821 5819 5818 5816 5815 5814 5812 5811 5810 5809 5808 5806 5805 5804 5803 5803 5802 5801 5801 5800 5800 5799 5799 5799 5800 5800 5801 5802 5803 5805 5807 5809 5811 5813 5815 5817 5819 5821
5822 5821 5820 5818 5816 5815 5813 5811 5810 5809 5807 5806 5804 5803 5801 5800 5799 5798 5797 5796 5795 5794 5794 5793 5793 5792 5792 5792 5792 5792 5793 5793 5795 5796 5797 5799 5801 5803 5805 5807 5810 5812 5814
5816 5815 5814 5812 5810 5808 5807 5805 5804 5802 5800 5799 5798 5796 5794 5793 5792 5791 5789 5788 5787 5786 5786 5785 5785 5785 5784 5784 5784 5784 5785 5785 5787 5788 5790 5791 5793 5795 5797 5799 5802 5804 5806
5810 5809 5807 5806 5804 5802 5800 5799 5797 5795 5794 5792 5790 5789 5787 5785 5784 5782 5781 5780 5779 5778 5778 5777 5777 5776 5776 5776 5776 5776 5776 5777 5778 5780 5781 5783 5785 5787 5789 5791 5793 5796 5798
5804 5803 5801 5799 5797 5795 5794 5792 5790 5789 5787 5785 5783 5781 5779 5778 5776 5774 5772 5771 5770 5769 5769 5768 5768 5768 5768 5768 5768 5768 5768 5769 5770 5771 5773 5774 5776 5778 5780 5782 5785 5787 5790
5798 5796 5794 5793 5790 5788 5787 5785 5783 5781 5779 5777 5775 5773 5771 5769 5767 5765 5763 5762 5760 5760 5759 5759 5759 5759 5758 5759 5759 5759 5759 5760 5761 5762 5764 5765 5767 5769 5772 5774 5776 5778 5781
5791 5789 5788 5786 5784 5782 5780 5778 5776 5774 5772 5770 5767 5765 5763 5760 5758 5757 5755 5753 5752 5750 5749 5749 5749 5749 5749 5748 5749 5749 5750 5750 5751 5753 5754 5756 5758 5760 5762 5764 5767 5769 5772
5785 5783 5781 5779 5777 5775 5773 5771 5769 5766 5764 5762 5760 5757 5755 5752 5750 5748 5747 5745 5743 5742 5740 5739 5739 5738 5738 5738 5738 5739 5740 5740 5741 5743 5745 5746 5748 5750 5753 5755 5757 5760 5763
5779 5777 5775 5773 5771 5769 5766 5763 5761 5759 5756 5754 5751 5749 5746 5744 5741 5739 5737 5736 5734 5733 5731 5730 5729 5728 5728 5728 5728 5729 5730 5730 5731 5733 5734 5736 5738 5740 5743 5745 5747 5750 5753
5773 5771 5769 5767 5764 5762 5759 5756 5754 5751 5749 5746 5743 5740 5737 5735 5732 5730 5728 5726 5725 5723 5722 5721 5719 5719 5718 5718 5718 5718 5719 5720 5721 5722 5724 5726 5728 5730 5732 5735 5737 5740 5743
5768 5765 5763 5761 5758 5755 5752 5749 5746 5744 5741 5739 5736 5732 5728 5726 5723 5721 5719 5717 5715 5713 5712 5711 5710 5709 5708 5707 5707 5708 5709 5710 5710 5712 5713 5715 5717 5719 5722 5725 5727 5730 5733
5762 5759 5757 5754 5751 5748 5745 5743 5740 5737 5734 5731 5728 5724 5721 5717 5714 5712 5709 5707 5706 5704 5703 5702 5700 5699 5698 5698 5697 5698 5698 5699 5700 5701 5703 5705 5707 5709 5711 5714 5717 5719 5723
5757 5754 5751 5748 5745 5742 5739 5736 5733 5730 5727 5724 5720 5717 5713 5710 5706 5704 5701 5699 5696 5695 5693 5692 5690 5689 5688 5687 5687 5687 5688 5688 5689 5690 5692 5694 5696 5698 5700 5703 5706 5709 5712
5751 5748 5745 5742 5739 5736 5733 5730 5727 5724 5721 5717 5713 5710 5706 5702 5699 5696 5693 5690 5688 5686 5684 5683 5681 5679 5678 5677 5677 5676 5676 5677 5677 5679 5681 5682 5684 5687 5689 5692 5695 5697 5701
5746 5743 5740 5736 5733 5730 5727 5724 5721 5717 5714 5710 5707 5703 5699 5695 5691 5688 5685 5682 5679 5677 5675 5673 5672 5670 5668 5668 5667 5666 5666 5666 5667 5668 5670 5671 5673 5675 5678 5680 5683 5686 5689
5741 5738 5734 5731 5728 5724 5721 5718 5714 5711 5707 5704 5700 5696 5692 5688 5684 5680 5677 5673 5670 5668 5666 5664 5662 5660 5659 5657 5657 5656 5656 5656 5656 5657 5659 5660 5662 5664 5666 5669 5671 5674 5677
5736 5733 5730 5726 5723 5719 5716 5712 5709 5705 5701 5697 5693 5689 5684 5680 5677 5673 5669 5665 5662 5659 5657 5655 5652 5650 5649 5647 5646 5646 5645 5645 5646 5646 5647 5649 5650 5652 5654 5657 5660 5662 5665
5732 5729 5725 5722 5718 5714 5711 5707 5703 5699 5695 5691 5686 5681 5677 5672 5668 5664 5661 5657 5654 5650 5648 5645 5643 5641 5639 5637 5636 5635 5635 5634 5635 5635 5636 5637 5639 5640 5642 5644 5647 5650 5653
5729 5725 5721 5717 5713 5709 5705 5702 5697 5693 5688 5684 5679 5674 5669 5665 5660 5656 5652 5648 5645 5641 5638 5635 5633 5631 5629 5627 5625 5624 5623 5624 5624 5625 5624 5625 5626 5628 5630 5633 5635 5638 5641
5725 5722 5717 5713 5709 5705 5701 5697 5692 5687 5682 5677 5673 5667 5662 5657 5653 5648 5644 5640 5636 5632 5629 5626 5623 5620 5618 5617 5615 5614 5613 5612 5613 5613 5613 5614 5615 5617 5619 5621 5623 5626 5629
5722 5718 5714 5710 5706 5701 5696 5692 5687 5681 5676 5671 5666 5661 5656 5650 5645 5641 5636 5632 5628 5623 5620 5617 5614 5611 5608 5606 5604 5603 5602 5602 5602 5602 5602 5604 5605 5606 5608 5610 5612 5615 5618
5720 5716 5711 5707 5702 5697 5692 5687 5681 5676 5670 5665 5660 5655 5649 5644 5639 5634 5629 5625 5620 5616 5612 5608 5605 5602 5599 5597 5595 5593 5592 5592 5592 5592 5592 5593 5595 5596 5597 5599 5601 5604 5607
5717 5713 5708 5703 5698 5693 5687 5682 5676 5671 5665 5660 5655 5649 5644 5638 5633 5628 5623 5618 5614 5609 5605 5601 5598 5594 5591 5589 5586 5585 5583 5583 5582 5583 5583 5583 5584 5585 5587 5589 5591 5593 5596